STARLINK-34101, 63812

Orbit data source: Space-Track

STARLINK-34101, 63812 is a payload satellite owned by SpaceX/Seattle (US) in LEO that was launched on Sun, 04 May 2025 UTC via an FALCON 9 launch vehicle from the Air Force Eastern Test Range (AFETR). Payload-class satellites include a variety of spacecraft equipped with specific instruments for various scientific and technological missions. These include communications satellites like Starlink; space stations such as the ISS; scientific satellites like the Hubble; Earth observation satellites from companies like Planet Labs, Umbra, and HawkEye 360; GPS; miniature CubeSats for education and research; and military/defense satellites.

Loading next visibility...
Identifier
63812, 2025-092J
Orbit
LEO
Country
Flag of USUS
Related business
Manufacturer
SpaceX/Seattle
Mission
Operational Commercial Communications
Bus & Motor
STARLINK V2MO, Unknown motor
Mass
575 kg wet, ~530 kg dry
Launch date (UTC)
2025-05-04 (6 months ago)
Launch vehicle
FALCON 9
Launch site
Air Force Eastern Test Range (AFETR)
Object type
Payload
Rocket body
Debris
Shape & HBR
Box + 2 Pan, 17.7 m
Radar Cross Section
36.964 m², Large (>1 m²)

Expand to show TLE details & history
Last TLE update: 6 hours ago

TLE from 6 hours ago
0 STARLINK-34101
1 63812U 25092J   25311.24997825  .00013164  00000-0  48687-3 0  9997
2 63812  43.0024 143.6258 0001781 260.0358 100.0293 15.27590228 29833
Epoch: 2025-11-07T05:59Z
TLE epoch observation values (Epoch: 2025-11-07T05:59:58.120Z)
Latitude
-0.00001°
Longitude
6.93698°
Altitude
483.007 km
Speed
7.626 km/s
True Right ascension
09h 34m 30s
True Declination
0° 00' 00"
Sunlit
Object was in daylight at epoch
Visualization orbit readout
Latitude
Unknown
Longitude
Unknown
Altitude
Unknown
Speed
Unknown
Apparent Right ascension
Unknown
Apparent Declination
Unknown
Sunlit
N/A
Visualization observer readout
Local Sidereal Time
08:28:08
Azimuth
Unknown
Elevation
Unknown
Doppler factor
Unknown
Orbital elements
Apogee altitude
486.186 km
Perigee altitude
483.741 km
Semi-major axis
6,863.1 km
Eccentricity
0.00018
Inclination
43.0024°
RAAN
143.6258°
Arg. of periapsis
260.0358°
True anomaly
100.0494°
Mean anomaly
100.0293°
Eccentric anomaly
100.03935°
Mean motion
3.81736 °/min
Orbital period
94.31 mins
BSTAR
0.00048687
Loading maneuver chart data...
Computing Atmospheric mass density...
Loading historical data...
Loading historical data...
Loading historical data...
Loading historical data...
Loading historical data...
Loading historical data...
Loading historical data...

Documentation

Showing up to 5 results
|